1486882800.72,4142,9.63,73980.3,-7.79,-37.51,-38.05,0,*64
1486882801.98,4143,9.63,73980.3,-7.79,-37.51,-37.99,0,*6F
1486882803.21,4144,9.69,73984.8,-7.79,-37.51,-38.17,0,*61
1486882804.45,4145,9.63,73980.5,-7.77,-37.45,-37.93,0,*68
1486882805.71,4146,9.69,73984.0,-7.79,-37.51,-37.99,0,*6A
1486882806.94,4147,9.63,73982.5,-7.79,-37.51,-38.05,0,*61
1486882808.17,4148,9.69,73986.0,-7.79,-37.45,-37.99,0,*61
1486882809.37,4149,9.63,73980.8,-7.79,-37.33,-37.87,0,*6E
1486882810.61,4150,9.63,73980.0,-7.79,-37.45,-37.99,0,*68
1486882811.83,4151,9.63,73984.3,-7.79,-37.45,-37.99,0,*69
1486882813.09,4152,9.63,73984.0,-7.77,-37.57,-37.99,0,*67
1486882814.34,4153,9.69,73982.8,-7.77,-37.45,-37.93,0,*6F
1486882815.6,4154,9.63,73982.8,-7.79,-37.51,-37.99,0,*69
1486882816.86,4155,9.69,73984.3,-7.79,-37.51,-37.99,0,*68
1486882818.1,4156,9.63,73980.0,-7.77,-37.45,-37.93,0,*6A
1486882819.31,4157,9.69,73984.3,-7.79,-37.45,-37.87,0,*60
1486882820.51,4158,9.63,73982.8,-7.79,-37.45,-38.05,0,*6A
1486882821.71,4159,9.69,73984.3,-7.79,-37.45,-38.05,0,*6B
1486882822.95,4160,9.63,73980.8,-7.77,-37.45,-37.93,0,*6F
1486882824.21,4161,9.69,73982.3,-7.77,-37.27,-37.93,0,*6A
1486882825.46,4162,9.69,73984.3,-7.77,-37.27,-37.93,0,*69
1486882826.71,4163,9.63,73980.5,-7.77,-37.45,-37.93,0,*6C
1486882827.99,4164,9.69,73982.5,-7.77,-37.39,-37.99,0,*6A
1486882829.24,4165,9.69,73984.5,-7.77,-37.57,-37.99,0,*63
1486882830.5,4166,9.63,73980.0,-7.77,-37.45,-37.99,0,*63
1486882831.75,4167,9.69,73984.5,-7.77,-37.45,-37.99,0,*62
1486882833.0,4168,9.69,73984.3,-7.77,-37.57,-37.99,0,*6E
1486882834.23,4169,9.63,73982.0,-7.75,-37.57,-37.99,0,*6D
1486882835.47,4170,9.69,73984.5,-7.75,-37.45,-37.99,0,*66
1486882836.7,4171,9.69,73986.8,-7.75,-37.45,-37.99,0,*67
1486882837.95,4172,9.63,73980.8,-7.75,-37.39,-37.93,0,*65
1486882839.18,4173,9.69,73986.0,-7.75,-37.45,-37.93,0,*6F
1486882840.4,4174,9.69,73982.5,-7.75,-37.57,-38.11,0,*6E
1486882841.63,4175,9.63,73980.0,-7.75,-37.45,-37.99,0,*63
1486882842.86,4176,9.69,73984.0,-7.75,-37.45,-37.99,0,*60
1486882844.12,4177,9.69,73980.3,-7.75,-37.39,-37.93,0,*60
1486882845.35,4178,9.69,73982.0,-7.75,-37.57,-37.99,0,*6D
1486882846.6,4179,9.63,73980.0,-7.75,-37.51,-38.11,0,*65
1486882847.83,4180,9.69,73984.0,-7.75,-37.57,-37.99,0,*6A
1486882849.08,4181,9.63,73982.8,-7.75,-37.63,-38.11,0,*63
1486882850.31,4182,9.69,73984.5,-7.71,-37.57,-37.93,0,*66
1486882851.55,4183,9.63,73982.8,-7.73,-37.51,-38.05,0,*63
1486882852.81,4184,9.69,73984.0,-7.73,-37.39,-37.87,0,*6F
1486882854.09,4185,9.69,73986.0,-7.73,-37.51,-37.93,0,*65
1486882855.31,4186,9.69,73986.0,-7.73,-37.57,-38.05,0,*60
1486882856.56,4187,9.69,73982.0,-7.75,-37.63,-38.11,0,*65
1486882857.84,4188,9.69,73982.8,-7.73,-37.51,-38.11,0,*6D
1486882859.11,4189,9.69,73982.0,-7.73,-37.51,-37.93,0,*69
1486882860.36,4190,9.69,73982.8,-7.73,-37.39,-38.05,0,*6F
1486882861.61,4191,9.69,73984.0,-7.71,-37.39,-37.93,0,*6C
1486882862.83,4192,9.69,73984.3,-7.71,-37.33,-37.93,0,*65
1486882864.08,4193,9.69,73982.0,-7.73,-37.39,-38.05,0,*6C
1486882865.33,4194,9.69,73980.0,-7.73,-37.51,-38.05,0,*65
1486882866.55,4195,9.69,73982.5,-7.71,-37.57,-38.11,0,*65
1486882867.77,4196,9.69,73982.3,-7.71,-37.57,-38.11,0,*66
1486882869.0,4197,9.69,73982.8,-7.71,-37.51,-38.05,0,*64
1486882870.24,4198,9.69,73980.8,-7.71,-37.51,-38.11,0,*6E
1486882871.5,4199,9.69,73980.0,-7.69,-37.33,-37.99,0,*6D
1486882872.73,4200,9.69,73982.0,-7.71,-37.51,-37.87,0,*6C
1486882873.93,4201,9.69,73982.0,-7.71,-37.33,-37.87,0,*69
1486882875.16,4202,9.69,73980.3,-7.69,-37.45,-37.87,0,*62
1486882876.36,4203,9.69,73982.0,-7.71,-37.57,-38.05,0,*6C
1486882877.61,4204,9.69,73982.3,-7.69,-37.45,-37.99,0,*6B
1486882878.81,4205,9.69,73984.5,-7.71,-37.45,-37.87,0,*6C
1486882880.06,4206,9.69,73982.8,-7.71,-37.39,-37.93,0,*61
1486882881.31,4207,9.69,73982.5,-7.69,-37.63,-38.05,0,*66
1486882882.59,4208,9.69,73982.0,-7.69,-37.51,-37.99,0,*62
1486882883.87,4209,9.69,73980.8,-7.69,-37.51,-37.99,0,*63
1486882885.12,4210,9.69,73982.5,-7.69,-37.51,-38.05,0,*61
1486882886.4,4211,9.69,73980.3,-7.69,-37.51,-37.99,0,*6A
1486882887.65,4212,9.69,73982.5,-7.69,-37.45,-37.99,0,*6C
1486882888.91,4213,9.69,73980.5,-7.69,-37.33,-37.99,0,*6C
1486882890.16,4214,9.69,73986.0,-7.69,-37.45,-37.99,0,*6A
1486882891.41,4215,9.69,73984.8,-7.69,-37.45,-37.99,0,*6B
1486882892.66,4216,9.69,73984.0,-7.69,-37.63,-38.17,0,*65
1486882893.94,4217,9.69,73986.0,-7.69,-37.51,-37.99,0,*6C
1486882895.18,4218,9.69,73982.8,-7.67,-37.45,-37.99,0,*68
1486882896.41,4219,9.63,73978.5,-7.67,-37.45,-37.99,0,*69
1486882897.61,4220,9.69,73984.0,-7.67,-37.45,-37.87,0,*6C
1486882898.86,4221,9.69,73980.8,-7.65,-37.45,-37.93,0,*6A
1486882900.12,4222,9.69,73980.8,-7.67,-37.51,-37.99,0,*64
1486882901.37,4223,9.69,73982.8,-7.69,-37.45,-37.99,0,*6E
1486882902.62,4224,9.69,73980.3,-7.69,-37.45,-37.99,0,*69
1486882903.82,4225,9.69,73980.8,-7.67,-37.45,-38.05,0,*6C
1486882905.05,4226,9.69,73980.3,-7.67,-37.45,-37.99,0,*65
1486882906.26,4227,9.69,73982.8,-7.67,-37.45,-37.87,0,*6B
1486882907.49,4228,9.69,73980.0,-7.67,-37.45,-37.99,0,*6B
1486882908.71,4229,9.69,73980.5,-7.67,-37.51,-38.05,0,*65
1486882909.94,4230,9.69,73984.5,-7.67,-37.45,-37.99,0,*62
1486882911.17,4231,9.69,73980.8,-7.67,-37.51,-38.05,0,*6C
1486882912.42,4232,9.69,73982.8,-7.65,-37.57,-37.99,0,*61
1486882913.67,4233,9.69,73982.8,-7.67,-37.39,-37.93,0,*60
1486882914.95,4234,9.69,73980.5,-7.65,-37.39,-37.93,0,*65
1486882916.22,4235,9.69,73980.5,-7.65,-37.39,-37.93,0,*64
1486882917.49,4236,9.69,73986.0,-7.65,-37.39,-37.93,0,*67
1486882918.77,4237,9.69,73982.5,-7.65,-37.39,-37.93,0,*66
1486882920.04,4238,9.69,73980.5,-7.65,-37.39,-37.93,0,*69
1486882921.32,4239,9.69,73980.0,-7.65,-37.39,-37.81,0,*6B
1486882922.56,4240,9.69,73980.5,-7.61,-37.45,-37.93,0,*69
1486882923.84,4241,9.69,73982.5,-7.61,-37.39,-37.93,0,*63
1486882925.07,4242,9.69,73980.0,-7.59,-37.27,-37.99,0,*6E
1486882926.3,4243,9.69,73984.0,-7.59,-37.21,-37.75,0,*6B
1486882927.58,4244,9.69,73982.5,-7.61,-37.39,-37.81,0,*65
1486882928.86,4245,9.69,73984.8,-7.61,-37.39,-37.81,0,*64
1486882930.09,4246,9.69,73986.5,-7.59,-37.21,-37.75,0,*6E
1486882931.33,4247,9.69,73982.8,-7.59,-37.21,-37.75,0,*6F
1486882932.6,4248,9.69,73984.0,-7.61,-37.39,-37.93,0,*6A
1486882933.85,4249,9.69,73984.8,-7.61,-37.27,-37.93,0,*64
1486882935.05,4250,9.69,73984.0,-7.59,-37.33,-37.87,0,*67
1486882936.31,4251,9.69,73986.8,-7.61,-37.27,-37.81,0,*6E
1486882937.53,4252,9.69,73980.3,-7.59,-37.33,-37.81,0,*63
1486882938.77,4253,9.69,73980.0,-7.59,-37.21,-37.87,0,*67
1486882940.0,4254,9.69,73980.8,-7.59,-37.33,-37.93,0,*66
1486882941.27,4255,9.69,73982.0,-7.61,-37.39,-37.93,0,*66
1486882942.48,4256,9.69,73980.5,-7.59,-37.33,-37.87,0,*61
1486882943.68,4257,9.69,73980.8,-7.59,-37.33,-37.87,0,*60
1486882944.89,4258,9.69,73980.3,-7.59,-37.33,-37.87,0,*6F
1486882946.14,4259,9.69,73984.3,-7.59,-37.39,-37.93,0,*61
1486882947.4,4260,9.69,73980.8,-7.59,-37.39,-37.93,0,*6B
1486882948.65,4261,9.69,73982.5,-7.59,-37.21,-37.93,0,*63
1486882949.91,4262,9.69,73982.8,-7.59,-37.39,-37.93,0,*69
1486882951.18,4263,9.69,73984.8,-7.57,-37.39,-37.93,0,*66
1486882952.46,4264,9.69,73984.5,-7.57,-37.39,-37.93,0,*61
1486882953.73,4265,9.69,73980.3,-7.57,-37.39,-37.93,0,*60
1486882954.99,4266,9.69,73986.0,-7.57,-37.51,-37.87,0,*68
1486882956.25,4267,9.69,73986.0,-7.57,-37.39,-37.87,0,*67
1486882957.5,4268,9.69,73984.5,-7.57,-37.39,-37.87,0,*68
1486882958.76,4269,9.69,73984.8,-7.57,-37.39,-37.87,0,*69
1486882959.99,4270,9.69,73982.0,-7.55,-37.33,-37.87,0,*69
1486882961.22,4271,9.69,73982.3,-7.57,-37.33,-37.87,0,*6A
1486882962.45,4272,9.69,73984.0,-7.55,-37.45,-37.87,0,*6A
1486882963.69,4273,9.69,73984.8,-7.55,-37.33,-37.87,0,*6A
1486882964.94,4274,9.69,73982.8,-7.55,-37.33,-37.81,0,*6B
1486882966.2,4275,9.69,73984.3,-7.55,-37.33,-37.81,0,*6A
1486882967.46,4276,9.69,73984.8,-7.55,-37.45,-37.81,0,*68
1486882968.69,4277,9.69,73980.0,-7.55,-37.45,-37.87,0,*6F
1486882969.95,4278,9.69,73982.8,-7.55,-37.45,-37.81,0,*66
1486882971.17,4279,9.69,73984.5,-7.55,-37.45,-38.05,0,*64
1486882972.41,4280,9.69,73984.3,-7.55,-37.33,-37.87,0,*66
1486882973.64,4281,9.69,73984.5,-7.55,-37.33,-37.87,0,*67
1486882974.87,4282,9.69,73982.8,-7.55,-37.45,-37.87,0,*65
1486882976.11,4283,9.69,73986.5,-7.55,-37.33,-37.87,0,*65
1486882977.37,4284,9.69,73980.3,-7.55,-37.33,-37.99,0,*6D
1486882978.62,4285,9.69,73986.0,-7.55,-37.51,-38.05,0,*62
1486882979.9,4286,9.69,73984.3,-7.51,-37.39,-37.93,0,*6B
1486882981.11,4287,9.69,73984.8,-7.53,-37.33,-37.87,0,*67
1486882982.32,4288,9.69,73982.3,-7.53,-37.33,-37.87,0,*68
1486882983.57,4289,9.69,73982.8,-7.51,-37.39,-38.05,0,*64
1486882984.78,4290,9.69,73984.0,-7.53,-37.33,-37.87,0,*61
1486882986.04,4291,9.69,73980.5,-7.51,-37.27,-37.81,0,*61
1486882987.24,4292,9.69,73984.3,-7.53,-37.45,-38.05,0,*67
1486882988.47,4293,9.69,73982.0,-7.53,-37.45,-37.99,0,*6C
1486882989.75,4294,9.69,73984.3,-7.51,-37.39,-37.93,0,*68
1486882990.96,4295,9.69,73982.8,-7.53,-37.45,-37.87,0,*65
1486882992.19,4296,9.69,73984.8,-7.53,-37.33,-37.99,0,*68
1486882993.4,4297,9.69,73986.0,-7.53,-37.27,-37.87,0,*63
1486882994.6,4298,9.75,73986.0,-7.53,-37.45,-37.87,0,*68
1486882995.81,4299,9.69,73982.3,-7.53,-37.45,-37.87,0,*69
1486882997.07,4300,9.69,73986.5,-7.51,-37.27,-37.81,0,*68
1486882998.3,4301,9.69,73984.8,-7.53,-37.45,-37.81,0,*6F
1486882999.56,4302,9.69,73982.8,-7.51,-37.27,-37.93,0,*69
1486883000.85,4303,9.69,73986.8,-7.51,-37.39,-37.81,0,*64
1486883002.11,4304,9.69,73982.8,-7.51,-37.45,-37.93,0,*6B
1486883003.33,4305,9.75,73986.8,-7.51,-37.45,-38.05,0,*6A
1486883004.56,4306,9.69,73982.3,-7.51,-37.45,-38.05,0,*69
1486883005.79,4307,9.75,73986.8,-7.51,-37.57,-38.05,0,*6B
1486883007.07,4308,9.69,73984.0,-7.51,-37.39,-37.93,0,*6C
1486883008.36,4309,9.69,73984.8,-7.51,-37.39,-37.99,0,*67
1486883009.64,4310,9.69,73982.0,-7.51,-37.39,-37.93,0,*65
1486883010.87,4311,9.69,73984.3,-7.49,-37.45,-37.93,0,*66
1486883012.13,4312,9.75,73984.5,-7.49,-37.39,-37.93,0,*6E
1486883013.39,4313,9.75,73984.8,-7.49,-37.39,-37.81,0,*6C
1486883014.63,4314,9.75,73986.5,-7.49,-37.27,-37.81,0,*64
1486883015.89,4315,9.69,73980.8,-7.49,-37.21,-37.81,0,*63
1486883017.13,4316,9.75,73984.0,-7.49,-37.27,-37.81,0,*66
1486883018.36,4317,9.69,73984.5,-7.49,-37.27,-37.81,0,*67
1486883019.62,4318,9.69,73984.5,-7.49,-37.39,-37.81,0,*67
1486883020.88,4319,9.69,73984.3,-7.49,-37.39,-37.81,0,*66
1486883022.12,4320,9.75,73984.8,-7.47,-37.33,-37.75,0,*63
1486883023.38,4321,9.69,73984.0,-7.47,-37.21,-37.75,0,*61
1486883024.65,4322,9.69,73982.5,-7.47,-37.21,-37.87,0,*6F
1486883025.85,4323,9.69,73980.0,-7.49,-37.33,-37.75,0,*6E
1486883027.09,4324,9.69,73984.5,-7.47,-37.33,-37.87,0,*6A
1486883028.35,4325,9.69,73982.8,-7.47,-37.39,-37.87,0,*61
1486883029.58,4326,9.69,73982.3,-7.49,-37.45,-37.93,0,*62
1486883030.85,4327,9.69,73980.0,-7.47,-37.21,-37.75,0,*67
1486883032.08,4328,9.69,73980.8,-7.47,-37.33,-37.87,0,*66
1486883033.35,4329,9.75,73986.8,-7.47,-37.21,-37.75,0,*69
1486883034.57,4330,9.75,73984.8,-7.45,-37.33,-37.93,0,*68
1486883035.81,4331,9.75,73984.0,-7.45,-37.51,-37.87,0,*68
1486883037.01,4332,9.75,73984.3,-7.45,-37.33,-37.75,0,*62
1486883038.22,4333,9.75,73982.8,-7.45,-37.33,-37.87,0,*6E
1486883039.47,4334,9.69,73980.5,-7.45,-37.21,-37.69,0,*6A
1486883040.73,4335,9.69,73980.3,-7.45,-37.21,-37.69,0,*6B
1486883041.96,4336,9.75,73984.3,-7.45,-37.39,-37.87,0,*61
1486883043.21,4337,9.75,73984.0,-7.45,-37.39,-37.93,0,*65
1486883044.45,4338,9.75,73984.5,-7.45,-37.39,-37.87,0,*6F
1486883045.7,4339,9.75,73982.5,-7.43,-37.27,-37.69,0,*67
1486883046.95,4340,9.75,73982.5,-7.43,-37.15,-37.69,0,*68
1486883048.21,4341,9.75,73980.5,-7.43,-37.27,-37.81,0,*6E
1486883049.47,4342,9.69,73980.8,-7.43,-37.15,-37.81,0,*6C
1486883050.73,4343,9.75,73980.3,-7.43,-37.27,-37.81,0,*6C
1486883051.96,4344,9.75,73982.8,-7.43,-37.45,-37.87,0,*69
1486883053.22,4345,9.75,73982.8,-7.39,-37.27,-37.63,0,*6B
1486883054.46,4346,9.75,73984.5,-7.43,-37.33,-37.87,0,*6A
1486883055.71,4347,9.75,73986.5,-7.43,-37.45,-37.81,0,*6C
1486883056.96,4348,9.75,73982.8,-7.43,-37.27,-37.69,0,*61
1486883058.21,4349,9.75,73986.5,-7.43,-37.45,-37.69,0,*64
1486883059.45,4350,9.75,73984.3,-7.43,-37.45,-37.87,0,*6C
1486883060.71,4351,9.75,73986.5,-7.43,-37.33,-37.81,0,*6A
1486883061.96,4352,9.69,73982.8,-7.43,-37.33,-37.81,0,*69
1486883063.25,4353,9.75,73984.8,-7.39,-37.21,-37.81,0,*66
1486883064.51,4354,9.75,73980.5,-7.39,-37.27,-37.81,0,*67
1486883065.73,4355,9.75,73982.0,-7.43,-37.45,-38.05,0,*6C
1486883067.01,4356,9.75,73982.8,-7.43,-37.51,-37.93,0,*6A
1486883068.3,4357,9.75,73984.3,-7.43,-37.63,-37.93,0,*6A
1486883069.53,4358,9.75,73982.5,-7.39,-37.57,-37.87,0,*6A
1486883070.81,4359,9.75,73986.3,-7.43,-37.51,-37.93,0,*65
1486883072.04,4360,9.75,73986.0,-7.39,-37.45,-37.87,0,*62
1486883073.24,4361,9.75,73984.3,-7.37,-37.57,-38.05,0,*6B
1486883074.46,4362,9.75,73984.8,-7.39,-37.57,-38.05,0,*66
1486883075.72,4363,9.75,73980.3,-7.39,-37.39,-37.87,0,*6A
1486883076.96,4364,9.75,73982.5,-7.37,-37.39,-37.87,0,*63
1486883078.21,4365,9.75,73986.8,-7.39,-37.39,-37.75,0,*61
1486883079.47,4366,9.75,73986.8,-7.39,-37.27,-37.99,0,*6F
1486883080.73,4367,9.75,73986.5,-7.39,-37.27,-37.81,0,*67
1486883081.96,4368,9.75,73986.8,-7.39,-37.27,-37.75,0,*63
1486883083.19,4369,9.75,73982.8,-7.39,-37.27,-37.75,0,*62
1486883084.47,4370,9.75,73982.8,-7.39,-37.39,-37.81,0,*6E
1486883085.73,4371,9.75,73984.5,-7.39,-37.45,-37.99,0,*6D
1486883086.96,4372,9.75,73984.0,-7.37,-37.39,-37.87,0,*64
1486883088.22,4373,9.75,73984.0,-7.39,-37.45,-37.99,0,*6F
1486883089.47,4374,9.75,73982.3,-7.33,-37.39,-37.93,0,*63
1486883090.73,4375,9.75,73986.0,-7.35,-37.57,-37.99,0,*66
1486883091.96,4376,9.75,73984.5,-7.39,-37.57,-38.05,0,*63
1486883093.19,4377,9.75,73986.0,-7.37,-37.57,-37.99,0,*66
1486883094.41,4378,9.75,73986.3,-7.39,-37.57,-38.17,0,*6E
1486883095.62,4379,9.75,73986.0,-7.37,-37.75,-38.17,0,*61
1486883096.84,4380,9.75,73984.3,-7.39,-37.75,-38.17,0,*69
1486883098.1,4381,9.75,73982.8,-7.39,-37.63,-38.17,0,*6F
1486883099.35,4382,9.75,73984.0,-7.39,-37.63,-38.17,0,*6C
1486883100.58,4383,9.75,73984.0,-7.37,-37.63,-38.17,0,*63
1486883101.8,4384,9.75,73986.8,-7.37,-37.63,-38.05,0,*67
1486883103.03,4385,9.75,73986.5,-7.39,-37.57,-38.17,0,*6C
1486883104.23,4386,9.75,73986.8,-7.37,-37.57,-38.17,0,*61
1486883105.49,4387,9.75,73986.0,-7.39,-37.63,-38.17,0,*69
1486883106.74,4388,9.75,73986.5,-7.39,-37.45,-37.99,0,*6B
1486883107.97,4389,9.75,73986.0,-7.37,-37.45,-37.99,0,*64
1486883109.2,4390,9.75,73984.8,-7.39,-37.57,-38.05,0,*6B
1486883110.43,4391,9.75,73986.8,-7.37,-37.57,-37.99,0,*6E
1486883111.69,4392,9.75,73984.5,-7.35,-37.57,-37.99,0,*6F
1486883112.91,4393,9.75,73986.3,-7.37,-37.63,-38.17,0,*62
1486883114.17,4394,9.75,73984.0,-7.39,-37.63,-38.05,0,*68
1486883115.37,4395,9.75,73984.8,-7.37,-37.57,-38.17,0,*63
1486883116.6,4396,9.75,73984.5,-7.37,-37.75,-38.23,0,*67
1486883117.82,4397,9.75,73986.5,-7.37,-37.63,-38.17,0,*66
1486883119.08,4398,9.75,73986.3,-7.35,-37.45,-37.99,0,*66
1486883120.31,4399,9.75,73984.8,-7.35,-37.45,-38.05,0,*6D
1486883121.5,4400,9.75,73986.0,-7.37,-37.45,-38.05,0,*68
1486883122.73,4401,9.75,73984.0,-7.37,-37.45,-37.99,0,*63
1486883123.97,4402,9.75,73986.5,-7.35,-37.57,-37.87,0,*6E
1486883125.22,4403,9.75,73986.0,-7.35,-37.45,-37.99,0,*63
1486883126.48,4404,9.75,73986.5,-7.33,-37.51,-37.99,0,*67
1486883127.74,4405,9.75,73982.8,-7.35,-37.63,-38.17,0,*68
1486883128.96,4406,9.75,73986.8,-7.35,-37.57,-38.17,0,*6C
1486883130.22,4407,9.75,73986.3,-7.35,-37.57,-37.99,0,*64
1486883131.48,4408,9.75,73986.0,-7.35,-37.57,-37.99,0,*6B
1486883132.74,4409,9.75,73984.5,-7.33,-37.21,-37.81,0,*64
1486883134.0,4410,9.75,73984.3,-7.35,-37.39,-37.87,0,*65
1486883135.23,4411,9.75,73984.5,-7.37,-37.45,-37.99,0,*62
1486883136.43,4412,9.75,73986.3,-7.37,-37.57,-38.05,0,*68
1486883137.66,4413,9.75,73986.8,-7.37,-37.63,-38.17,0,*6D
1486883138.89,4414,9.75,73986.0,-7.37,-37.63,-38.17,0,*6A
1486883140.14,4415,9.75,73984.5,-7.39,-37.75,-38.23,0,*65
1486883141.4,4416,9.75,73984.0,-7.39,-37.75,-38.23,0,*66
1486883142.63,4417,9.75,73984.3,-7.37,-37.75,-38.23,0,*69
1486883143.86,4418,9.75,73986.5,-7.37,-37.63,-38.17,0,*66
1486883145.09,4419,9.75,73986.3,-7.37,-37.63,-38.17,0,*67
1486883146.32,4420,9.75,73986.5,-7.37,-37.81,-38.35,0,*61
1486883147.56,4421,9.75,73988.0,-7.37,-37.81,-38.35,0,*60
1486883148.79,4422,9.75,73984.8,-7.37,-37.63,-38.05,0,*6C
1486883150.01,4423,9.75,73986.0,-7.37,-37.63,-38.05,0,*6D
1486883151.21,4424,9.75,73986.3,-7.37,-37.57,-38.05,0,*6D
1486883152.44,4425,9.75,73986.8,-7.37,-37.63,-38.17,0,*68
1486883153.64,4426,9.75,73986.5,-7.37,-37.75,-38.35,0,*6C
1486883154.84,4427,9.75,73984.8,-7.37,-37.75,-38.17,0,*6D
1486883156.04,4428,9.75,73982.5,-7.37,-37.75,-38.17,0,*62
1486883157.24,4429,9.75,73988.3,-7.37,-37.75,-38.17,0,*63
1486883158.44,4430,9.75,73986.0,-7.37,-37.75,-38.17,0,*6B
1486883159.67,4431,9.75,73986.3,-7.37,-37.63,-38.17,0,*6D
1486883160.9,4432,9.75,73986.5,-7.37,-37.63,-38.05,0,*6D
1486883162.15,4433,9.75,73982.8,-7.39,-37.63,-38.17,0,*61
1486883163.41,4434,9.75,73986.3,-7.37,-37.63,-38.23,0,*6F
1486883164.67,4435,9.75,73990.0,-7.37,-37.81,-38.23,0,*62
1486883165.93,4436,9.75,73984.8,-7.37,-37.63,-38.23,0,*6D
1486883167.14,4437,9.75,73990.8,-7.37,-37.87,-38.35,0,*61
1486883168.43,4438,9.75,73986.0,-7.39,-37.81,-38.23,0,*61
1486883169.63,4439,9.75,73986.3,-7.37,-37.75,-38.17,0,*62
1486883170.83,4440,9.75,73986.3,-7.37,-37.75,-38.05,0,*6F
1486883172.03,4441,9.75,73988.0,-7.37,-37.75,-38.17,0,*6D
1486883173.23,4442,9.75,73990.0,-7.37,-37.75,-38.17,0,*6E
1486883174.46,4443,9.75,73986.5,-7.37,-37.63,-38.17,0,*68
1486883175.68,4444,9.75,73986.5,-7.39,-37.75,-38.17,0,*66
1486883176.91,4445,9.75,73986.8,-7.37,-37.63,-38.17,0,*6E
1486883178.18,4446,9.75,73984.8,-7.37,-37.81,-38.23,0,*66
1486883179.39,4447,9.75,73986.0,-7.37,-37.87,-38.35,0,*66
1486883180.63,4448,9.75,73990.5,-7.37,-37.81,-38.35,0,*6F
1486883181.91,4449,9.75,73986.3,-7.39,-37.63,-38.23,0,*6B
1486883183.17,4450,9.75,73986.0,-7.39,-37.75,-38.23,0,*64
1486883184.42,4451,9.75,73984.5,-7.39,-37.75,-38.23,0,*65
1486883185.68,4452,9.75,73984.3,-7.39,-37.63,-38.17,0,*66
1486883186.9,4453,9.75,73986.0,-7.37,-37.63,-38.05,0,*6A
1486883188.1,4454,9.75,73984.3,-7.37,-37.57,-38.05,0,*6A
1486883189.36,4455,9.75,73986.3,-7.39,-37.45,-37.99,0,*6C
1486883190.59,4456,9.75,73986.8,-7.39,-37.57,-37.87,0,*63
1486883191.82,4457,9.75,73986.0,-7.37,-37.57,-37.81,0,*6A
1486883193.02,4458,9.75,73986.3,-7.37,-37.57,-38.17,0,*65
1486883194.25,4459,9.75,73984.0,-7.37,-37.63,-38.17,0,*63
1486883195.51,4460,9.81,73988.0,-7.37,-37.63,-37.99,0,*60
1486883196.76,4461,9.75,73984.3,-7.35,-37.57,-37.99,0,*64
1486883198.02,4462,9.75,73986.5,-7.35,-37.57,-37.99,0,*67
1486883199.25,4463,9.75,73986.0,-7.35,-37.57,-38.17,0,*6F
1486883200.5,4464,9.81,73992.3,-7.35,-37.63,-38.17,0,*6F
1486883201.73,4465,9.75,73984.0,-7.39,-37.75,-38.17,0,*65
1486883203.02,4466,9.75,73986.8,-7.39,-37.63,-38.23,0,*66
1486883204.27,4467,9.75,73986.3,-7.37,-37.63,-38.23,0,*69
1486883205.5,4468,9.81,73988.0,-7.39,-37.75,-38.17,0,*68
1486883206.75,4469,9.75,73986.8,-7.39,-37.63,-38.05,0,*6D
1486883207.98,4470,9.75,73986.3,-7.37,-37.63,-38.17,0,*68
1486883209.2,4471,9.81,73990.8,-7.37,-37.63,-38.05,0,*6A
1486883210.43,4472,9.81,73990.8,-7.39,-37.57,-38.05,0,*60
1486883211.69,4473,9.75,73986.8,-7.39,-37.45,-37.99,0,*68
1486883212.89,4474,9.75,73986.5,-7.37,-37.57,-37.87,0,*6D
1486883214.18,4475,9.81,73990.3,-7.35,-37.63,-37.99,0,*66
1486883215.38,4476,9.81,73988.8,-7.37,-37.57,-37.87,0,*6F
1486883216.58,4477,9.75,73986.5,-7.37,-37.45,-38.05,0,*68
1486883217.81,4478,9.81,73988.8,-7.35,-37.45,-37.87,0,*60
1486883219.07,4479,9.81,73990.3,-7.35,-37.57,-37.99,0,*6D
1486883220.33,4480,9.75,73984.3,-7.35,-37.57,-37.99,0,*6B
1486883221.56,4481,9.81,73990.3,-7.37,-37.57,-37.99,0,*68
1486883222.79,4482,9.75,73984.5,-7.37,-37.63,-37.87,0,*63
1486883224.02,4483,9.75,73986.3,-7.37,-37.63,-38.17,0,*64
1486883225.27,4484,9.81,73990.3,-7.39,-37.63,-38.17,0,*6D
1486883226.5,4485,9.81,73992.5,-7.37,-37.63,-38.05,0,*61
1486883227.75,4486,9.75,73984.8,-7.39,-37.63,-38.05,0,*6C
1486883228.98,4487,9.81,73990.3,-7.37,-37.63,-38.17,0,*60
1486883230.23,4488,9.75,73984.3,-7.39,-37.63,-38.05,0,*62
1486883231.48,4489,9.81,73988.8,-7.39,-37.63,-38.05,0,*63
1486883232.7,4490,9.81,73988.3,-7.37,-37.63,-38.05,0,*65
1486883233.93,4491,9.81,73988.0,-7.37,-37.63,-38.05,0,*64
1486883235.15,4492,9.81,73986.5,-7.39,-37.57,-38.05,0,*6E
1486883236.38,4493,9.81,73988.8,-7.39,-37.57,-38.05,0,*6F
1486883237.6,4494,9.75,73984.3,-7.39,-37.57,-38.05,0,*68
1486883238.8,4495,9.81,73988.5,-7.37,-37.57,-38.05,0,*67
1486883240.03,4496,9.81,73988.5,-7.37,-37.45,-37.99,0,*6D
1486883241.26,4497,9.81,73988.0,-7.37,-37.57,-37.99,0,*6F
1486883242.49,4498,9.81,73990.8,-7.37,-37.63,-38.17,0,*6E
1486883243.71,4499,9.81,73986.5,-7.37,-37.63,-38.17,0,*6F
1486883244.96,4500,9.75,73986.8,-7.39,-37.63,-38.05,0,*63
1486883246.22,4501,9.81,73988.5,-7.39,-37.63,-38.05,0,*62
1486883247.44,4502,9.81,73988.8,-7.39,-37.57,-38.05,0,*66
1486883248.69,4503,9.81,73990.3,-7.39,-37.63,-38.05,0,*60
1486883249.92,4504,9.81,73988.0,-7.37,-37.57,-37.99,0,*64
1486883251.18,4505,9.81,73986.8,-7.39,-37.63,-38.17,0,*65
1486883252.43,4506,9.81,73986.0,-7.39,-37.63,-38.05,0,*65
1486883253.65,4507,9.81,73990.8,-7.39,-37.45,-38.05,0,*60
1486883254.85,4508,9.81,73988.0,-7.37,-37.75,-38.17,0,*61
1486883256.1,4509,9.81,73984.3,-7.39,-37.63,-38.05,0,*6A
1486883257.38,4510,9.81,73988.5,-7.43,-37.69,-38.11,0,*60
1486883258.66,4511,9.81,73990.5,-7.43,-37.69,-38.11,0,*61
1486883259.91,4512,9.81,73990.0,-7.43,-37.69,-38.05,0,*67
1486883261.16,4513,9.81,73990.0,-7.43,-37.69,-38.05,0,*66
1486883262.41,4514,9.81,73986.0,-7.43,-37.51,-38.05,0,*6A
1486883263.67,4515,9.81,73988.8,-7.43,-37.63,-38.05,0,*6A
1486883264.92,4516,9.81,73988.5,-7.43,-37.51,-38.05,0,*68
1486883266.15,4517,9.81,73988.0,-7.37,-37.57,-37.99,0,*66
1486883267.41,4518,9.81,73986.3,-7.39,-37.57,-37.99,0,*67
1486883268.66,4519,9.81,73990.3,-7.39,-37.45,-37.99,0,*65
1486883269.89,4520,9.81,73988.3,-7.39,-37.45,-37.87,0,*60
1486883271.15,4521,9.81,73984.3,-7.39,-37.63,-38.17,0,*63
1486883272.43,4522,9.81,73990.5,-7.43,-37.51,-38.11,0,*6A
1486883273.68,4523,9.81,73986.3,-7.45,-37.63,-38.11,0,*6C
1486883274.96,4524,9.81,73988.5,-7.43,-37.69,-38.23,0,*66
1486883276.23,4525,9.81,73988.3,-7.43,-37.87,-38.23,0,*67
1486883277.52,4526,9.81,73986.3,-7.43,-37.81,-38.23,0,*62
1486883278.75,4527,9.81,73988.3,-7.39,-37.75,-38.17,0,*62
1486883280.03,4528,9.81,73986.8,-7.43,-37.69,-38.29,0,*60
1486883281.32,4529,9.81,73988.3,-7.43,-37.69,-38.23,0,*6B
1486883282.59,4530,9.81,73988.8,-7.43,-37.69,-38.11,0,*62
1486883283.85,4531,9.81,73986.8,-7.43,-37.69,-38.05,0,*66
1486883285.1,4532,9.81,73986.8,-7.39,-37.63,-38.05,0,*62
1486883286.38,4533,9.81,73990.3,-7.43,-37.69,-38.11,0,*61
1486883287.65,4534,9.81,73988.5,-7.43,-37.69,-38.11,0,*66
1486883288.94,4535,9.81,73986.0,-7.43,-37.69,-38.23,0,*66
1486883290.18,4536,9.81,73986.5,-7.45,-37.87,-38.29,0,*69
1486883291.45,4537,9.81,73988.3,-7.43,-37.69,-38.11,0,*65
1486883292.69,4538,9.81,73988.5,-7.45,-37.75,-38.29,0,*6A
1486883293.92,4539,9.81,73990.0,-7.45,-37.75,-38.29,0,*6B
1486883295.14,4540,9.81,73986.5,-7.45,-37.75,-38.11,0,*6E
1486883296.34,4541,9.81,73988.0,-7.45,-37.75,-38.17,0,*69
1486883297.57,4542,9.81,73988.3,-7.45,-37.75,-38.11,0,*6C
1486883298.8,4543,9.81,73990.3,-7.45,-37.75,-37.99,0,*62
1486883300.03,4544,9.81,73990.0,-7.45,-37.69,-38.17,0,*61
1486883301.25,4545,9.81,73988.3,-7.45,-37.69,-38.17,0,*60
1486883302.51,4546,9.81,73988.5,-7.45,-37.69,-38.29,0,*6E
1486883303.76,4547,9.81,73990.0,-7.45,-37.69,-38.11,0,*64
1486883305.02,4548,9.81,73988.8,-7.45,-37.69,-37.99,0,*64
1486883306.24,4549,9.81,73986.5,-7.45,-37.57,-38.11,0,*67
1486883307.5,4550,9.81,73988.0,-7.45,-37.69,-37.99,0,*6D
1486883308.75,4551,9.81,73988.8,-7.45,-37.69,-38.11,0,*63
1486883310.0,4552,9.81,73988.5,-7.45,-37.69,-38.11,0,*60
1486883311.23,4553,9.81,73988.5,-7.45,-37.57,-38.11,0,*6C
1486883312.46,4554,9.81,73988.5,-7.45,-37.57,-37.99,0,*64
1486883313.69,4555,9.81,73986.5,-7.45,-37.57,-37.93,0,*6F